STARLINK-11283, 60993

Orbit data source: Space-Track

STARLINK-11283, 60993 is a payload satellite owned by SpaceX/Seattle (US) in LEO that was launched on Thu, 05 Sep 2024 UTC via an FALCON 9 launch vehicle from the Air Force Eastern Test Range (AFETR). Payloads include a variety of satellites, spacecraft, and rockets equipped with specific instruments for various scientific and technological missions. These include communications satellites like Starlink; space stations such as the ISS; scientific satellites like the Hubble; Earth observation satellites from companies like Planet Labs, Umbra, and HawkEye 360; GPS; miniature CubeSats for education and research; and military/defense satellites.

Loading next visibility...
STARLINK-11283 details
Identifier
60993, 2024-158D
Orbit
LEO
Last TLE update10 hours ago
Origin
Flag of USSpaceX/Seattle (US)
ManufacturerSpaceX/Seattle
MissionOperational spacecraft
Bus & MotorSTARLINK V2M, Unknown motor
Mass730 kg wet, ~700 kg dry
Launch date (UTC)
2024-09-05 (4 months ago)
Launch vehicle
FALCON 9
Launch site
Air Force Eastern Test Range (AFETR)
Object type
Payload
Rocket body
Debris
Shape & HBRUnknown
Radar Cross SectionLarge (>1 m²)

Expand to show TLE details & history

TLE from 10 hours ago
0 STARLINK-11283
1 60993U 24158D   24356.12993814 -.00001654  00000-0 -87963-5 0  9990
2 60993  53.1584 308.2124 0001485  68.7295 291.3881 15.69698190 17947
Epoch: 2024-12-21T03:07Z
Definitive object data (Epoch: 2024-12-21T03:07:06.655Z)
Latitude-0.00004°
Longitude171.24912°
Altitude360.311 km
Speed7.695 km/s
True Right ascension20h 32m 50s
True Declination0° 00' 00"
Sunlit
Object was in daylight at TLE epoch
Visualization TLE readout
Latitude50.10755°
Longitude-73.76223°
Altitude364.791 km
Speed7.697 km/s
Apparent Right ascension01h 50m 18s
Apparent Declination7° 57' 35"
Sunlit
Object is in full shadow
Visualization observer readout
Local Sidereal Time11:46:16
Azimuth321.908° NNW
Elevation-34.207°
Doppler factor1
Orbital elements
Apogee altitude361.022 km
Perigee altitude359.021 km
Semi-major axis6,738.158 km
Eccentricity0.0001485
Inclination53.1584°
RAAN308.2124°
Arg. of periapsis68.7295°
True anomaly291.37225°
Mean anomaly291.3881°
Eccentric anomaly291.38018°
Mean motion3.92402 °/min
BSTAR-0.0000087963
Orbital period91.74 mins
Loading maneuver chart data...
Loading historical data...
Loading historical data...
Loading historical data...
Loading historical data...
Loading historical data...
Loading historical data...
Loading historical data...

STARLINK-11283 Visibility forecast

Observer location: undefined°, undefined

Span
Click to sort rows by Start time (UTC) header in descending order
Start Az.
Max El. time (UTC)
Max El. Az.
Max El.
End time (UTC)
End Az.
4 mins2024-12-21 23:09:25.260Z189.878° SSW2024-12-21 23:11:25.260Z125.639° SE27.575°2024-12-21 23:13:25.260Z73.112° E
|